Weather History for KHYW - January, 2014

Change the Weather History Date:

Thursday, January 16, 2014

  Actual Average Record
Temperature  
Mean Temperature 40 °F -  
Max Temperature 48 °F 53 °F 53 °F (2015)
Min Temperature 32 °F 32 °F 33 °F (2015)
Degree Days  
Heating Degree Days 25    
Moisture  
Dew Point 34 °F    
Average Humidity 81    
Maximum Humidity 100    
Minimum Humidity 50    
Precipitation  
Precipitation 0.00 in - - ()
Sea Level Pressure  
Sea Level Pressure 30.00 in    
Wind  
Wind Speed 2 mph (NNW)    
Max Wind Speed 7 mph    
Max Gust Speed -    
Visibility 7 miles    
Events Rain    
Averages and records for this station are not official NWS values.
T = Trace of Precipitation, MM = Missing Value Source: NWS Daily Summary

Daily Weather History Graph

Daily Weather History Graph

Search for Another Location

Airport or City:

Trip Planner

Search our weather history database for the weather conditions in past years. The results will help you decide how hot, cold, wet, or windy it might be!

Date:

Astronomy

Jan. 16, 2014 Rise Set
Actual Time 7:21 AM EST 5:31 PM EST
Civil Twilight 6:54 AM EST 5:58 PM EST
Nautical Twilight 6:23 AM EST 6:29 PM EST
Astronomical Twilight 5:53 AM EST 6:59 PM EST
Moon 6:17 PM EST (1/16) 7:17 AM EST (1/16)
Length of Visible Light 11h 04m
Length of Day
10h 10m
Full, 100% of the Moon is Illuminated
Jan 16
Full
Jan 24
Last Quarter
Jan 30
New
Feb 6
First Quarter
Feb 14
Full

Hourly Weather History & Observations

Time (EST) Temp. Windchill Dew Point Humidity Pressure Visibility Wind Dir Wind Speed Gust Speed Precip Events Conditions
12:15 AM 42.8 °F 40.1 °F 35.6 °F 76% 29.92 in 7.0 mi NNW 4.6 mph - N/A   Clear
12:35 AM 42.8 °F 40.1 °F 35.6 °F 76% 29.93 in 7.0 mi NNW 4.6 mph - N/A   Clear
12:55 AM 42.8 °F 39.3 °F 35.6 °F 76% 29.92 in 7.0 mi North 5.8 mph - N/A   Clear
1:15 AM 42.8 °F 41.1 °F 33.8 °F 70% 29.92 in 7.0 mi NW 3.5 mph - N/A   Clear
1:35 AM 41.0 °F - 33.8 °F 76% 29.94 in 7.0 mi Calm Calm - N/A   Clear
1:55 AM 41.0 °F - 33.8 °F 76% 29.94 in 7.0 mi Calm Calm - N/A   Scattered Clouds
2:15 AM 41.0 °F - 33.8 °F 76% 29.93 in 7.0 mi Calm Calm - N/A   Overcast
2:35 AM 41.0 °F - 33.8 °F 76% 29.93 in 7.0 mi Calm Calm - N/A   Overcast
2:55 AM 41.0 °F - 35.6 °F 81% 29.93 in 7.0 mi Calm Calm - N/A   Mostly Cloudy
3:15 AM 41.0 °F - 35.6 °F 81% 29.93 in 7.0 mi Calm Calm - N/A   Mostly Cloudy
3:35 AM 41.0 °F - 35.6 °F 81% 29.93 in 7.0 mi Calm Calm - N/A   Overcast
3:55 AM 41.0 °F - 35.6 °F 81% 29.92 in 7.0 mi Calm Calm - N/A   Overcast
4:15 AM 41.0 °F - 35.6 °F 81% 29.93 in 7.0 mi Calm Calm - N/A   Mostly Cloudy
4:35 AM 41.0 °F 39.0 °F 33.8 °F 76% 29.93 in 10.0 mi NNW 3.5 mph - N/A   Mostly Cloudy
4:55 AM 41.0 °F 39.0 °F 33.8 °F 76% 29.94 in 5.0 mi NW 3.5 mph - N/A   Haze
5:15 AM 41.0 °F - 33.8 °F 76% 29.94 in 7.0 mi Calm Calm - N/A   Overcast
5:35 AM 41.0 °F - 33.8 °F 76% 29.94 in 7.0 mi Calm Calm - N/A   Overcast
5:55 AM 41.0 °F - 35.6 °F 81% 29.96 in 10.0 mi Calm Calm - N/A   Light Drizzle
6:15 AM 39.2 °F - 35.6 °F 87% 29.95 in 10.0 mi Calm Calm - N/A Rain Light Rain
6:35 AM 39.2 °F - 35.6 °F 87% 29.96 in 7.0 mi Calm Calm - N/A   Overcast
6:55 AM 39.2 °F - 37.4 °F 93% 29.97 in 10.0 mi Calm Calm - N/A Rain Light Rain
7:15 AM 39.2 °F 35.9 °F 37.4 °F 93% 29.97 in 7.0 mi WNW 4.6 mph - N/A   Overcast
7:35 AM 39.2 °F 35.9 °F 37.4 °F 93% 29.98 in 7.0 mi NW 4.6 mph - N/A   Overcast
7:55 AM 39.2 °F - 37.4 °F 93% 29.98 in 7.0 mi Calm Calm - N/A   Overcast
8:15 AM 39.2 °F 35.9 °F 37.4 °F 93% 29.99 in 5.0 mi NNW 4.6 mph - N/A   Overcast
8:35 AM 39.2 °F 35.9 °F 35.6 °F 87% 29.99 in 7.0 mi North 4.6 mph - N/A   Overcast
8:55 AM 39.2 °F 37.0 °F 35.6 °F 87% 30.00 in 7.0 mi NW 3.5 mph - N/A   Overcast
9:15 AM 39.2 °F 35.9 °F 35.6 °F 87% 30.01 in 7.0 mi NNW 4.6 mph - N/A   Overcast
9:35 AM 39.2 °F 35.9 °F 35.6 °F 87% 30.02 in 7.0 mi NW 4.6 mph - N/A   Overcast
9:55 AM 39.2 °F 35.9 °F 35.6 °F 87% 30.03 in 7.0 mi NW 4.6 mph - N/A   Overcast
10:15 AM 41.0 °F 37.1 °F 35.6 °F 81% 30.04 in 7.0 mi NNW 5.8 mph - N/A   Overcast
10:35 AM 41.0 °F 39.0 °F 35.6 °F 81% 30.04 in 5.0 mi North 3.5 mph - N/A   Haze
10:55 AM 41.0 °F 38.0 °F 35.6 °F 81% 30.03 in 5.0 mi North 4.6 mph - N/A   Haze
11:15 AM 41.0 °F 38.0 °F 35.6 °F 81% 30.03 in 5.0 mi NNW 4.6 mph - N/A   Haze
11:35 AM 41.0 °F 39.0 °F 35.6 °F 81% 30.02 in 5.0 mi NNW 3.5 mph - N/A   Haze
11:55 AM 42.8 °F - 33.8 °F 70% 30.01 in 7.0 mi Calm Calm - N/A   Overcast
12:15 PM 44.6 °F 42.2 °F 35.6 °F 71% 29.99 in 5.0 mi North 4.6 mph - N/A   Haze
12:35 PM 44.6 °F 42.2 °F 33.8 °F 66% 29.99 in 7.0 mi NNW 4.6 mph - N/A   Mostly Cloudy
12:55 PM 42.8 °F 40.1 °F 32.0 °F 66% 29.98 in 7.0 mi NNW 4.6 mph - N/A   Mostly Cloudy
1:15 PM 44.6 °F 40.7 °F 32.0 °F 61% 29.97 in 7.0 mi NNW 6.9 mph - N/A   Mostly Cloudy
1:35 PM 46.4 °F 45.2 °F 33.8 °F 62% 29.96 in 5.0 mi North 3.5 mph - N/A   Haze
1:55 PM 46.4 °F 45.2 °F 32.0 °F 57% 29.96 in 7.0 mi West 3.5 mph - N/A   Mostly Cloudy
2:15 PM 44.6 °F - 32.0 °F 61% 29.96 in 7.0 mi Calm Calm - N/A   Scattered Clouds
2:35 PM 44.6 °F 42.2 °F 32.0 °F 61% 29.97 in 5.0 mi West 4.6 mph - N/A   Haze
2:55 PM 48.2 °F - 30.2 °F 50% 29.97 in 5.0 mi WNW 5.8 mph - N/A   Haze
3:35 PM 46.4 °F 43.5 °F 30.2 °F 53% 29.97 in 7.0 mi North 5.8 mph - N/A   Mostly Cloudy
3:55 PM 46.4 °F 44.3 °F 30.2 °F 53% 29.98 in 7.0 mi North 4.6 mph - N/A   Mostly Cloudy
4:15 PM 46.4 °F 44.3 °F 28.4 °F 50% 29.99 in 5.0 mi WNW 4.6 mph - N/A   Haze
4:35 PM 46.4 °F 44.3 °F 28.4 °F 50% 30.00 in 7.0 mi WNW 4.6 mph - N/A   Scattered Clouds
4:55 PM 46.4 °F - 28.4 °F 50% 30.00 in 7.0 mi Calm Calm - N/A   Scattered Clouds
5:15 PM 44.6 °F - 30.2 °F 57% 30.01 in 5.0 mi Calm Calm - N/A   Haze
5:35 PM 41.0 °F - 32.0 °F 70% 30.01 in 5.0 mi Calm Calm - N/A   Haze
5:55 PM 37.4 °F - 33.8 °F 87% 30.02 in 7.0 mi Calm Calm - N/A   Clear
6:15 PM 37.4 °F - 33.8 °F 87% 30.03 in 7.0 mi Calm Calm - N/A   Clear
6:35 PM 35.6 °F - 32.0 °F 87% 30.04 in 7.0 mi Calm Calm - N/A   Clear
6:55 PM 35.6 °F - 32.0 °F 87% 30.04 in 5.0 mi Calm Calm - N/A   Clear
7:15 PM 33.8 °F - 33.8 °F 100% 30.05 in 7.0 mi Calm Calm - N/A   Clear
7:35 PM 33.8 °F - 33.8 °F 100% 30.06 in 7.0 mi Calm Calm - N/A   Clear
7:55 PM 32.0 °F - 32.0 °F 100% 30.06 in 7.0 mi Calm Calm - N/A   Clear
8:15 PM 32.0 °F - 32.0 °F 100% 30.07 in 7.0 mi Calm Calm - N/A   Clear
8:35 PM 32.0 °F - 32.0 °F 100% 30.07 in 7.0 mi Calm Calm - N/A   Clear
8:55 PM 32.0 °F - 32.0 °F 100% 30.08 in 7.0 mi Calm Calm - N/A   Clear
9:15 PM 32.0 °F - 32.0 °F 100% 30.09 in 7.0 mi Calm Calm - N/A   Clear
9:35 PM 32.0 °F - 32.0 °F 100% 30.08 in 7.0 mi Calm Calm - N/A   Clear
9:55 PM 32.0 °F - 32.0 °F 100% 30.09 in 5.0 mi Calm Calm - N/A   Clear
10:15 PM 32.0 °F - 32.0 °F 100% 30.09 in 7.0 mi Calm Calm - N/A   Clear
10:35 PM 32.0 °F - 32.0 °F 100% 30.09 in 5.0 mi Calm Calm - N/A   Clear
10:55 PM 32.0 °F - 32.0 °F 100% 30.09 in 7.0 mi Calm Calm - N/A   Clear
11:15 PM 32.0 °F - 32.0 °F 100% 30.09 in 7.0 mi Calm Calm - N/A   Clear
11:35 PM 32.0 °F - 32.0 °F 100% 30.09 in 7.0 mi Calm Calm - N/A   Clear
11:55 PM 32.0 °F - 32.0 °F 100% 30.09 in 7.0 mi Calm Calm - N/A   Clear